Location: Saluda
(35.2377°N, 82.3468°W)
Time: 13:32:27
(UTC+00:00)

SR - Pass Details

Date: 11 October 2022
Orbit: 577 x 875 km, 66.7° (Epoch: 28 November)

Event Time Altitude Azimuth Distance (km) Brightness Sun altitude
Rises 23:55:25 0° 204° (SSW) 3,399 ? -12.0°
Reaches altitude 10° 23:57:51 10° 204° (SSW) 2,488 ? -12.5°
Maximum altitude 00:03:41 87° 117° (ESE) 880 ? -13.7°
Drops below altitude 10° 00:09:35 10° 28° (NNE) 2,517 ? -14.9°
Sets 00:12:04 0° 28° (NNE) 3,441 ? -15.4°
